Overview Statistics Trail Chart Weather Telemetry Raw packets
 

This is the latest recevied weather packets stored in our database for station/object OK2JV-13. If no packets are shown the sender has not sent any weather packets the latest 10 day(s).

<< 31 32 33 34 35 36 37 >>
Time Temp. Humidity Pressure Rain* Wind** Luminosity Snow
1787993911 18.89° C 70% 1014.5 hPa - - - -
1787993307 18.33° C 70% 1014.6 hPa - - - -
1787992704 18.33° C 71% 1014.5 hPa - - - -
1787992100 18.33° C 74% 1014.4 hPa - - - -
1787991502 17.78° C 75% 1014.4 hPa - - - -
1787990892 17.78° C 77% 1014.3 hPa - - - -
1787990287 17.22° C 82% 1014.5 hPa - - - -
1787989683 16.67° C 88% 1014.2 hPa - - - -
1787989081 15.56° C 91% 1014.2 hPa - - - -
1787988474 15° C 92% 1014.1 hPa - - - -
1787987869 15° C 93% 1013.9 hPa - - - -
1787987265 14.44° C 93% 1013.7 hPa - - - -
1787986659 14.44° C 94% 1013.8 hPa - - - -
1787986055 13.89° C 93% 1013.9 hPa - - - -
1787985450 13.89° C 93% 1013.8 hPa - - - -
1787984846 13.89° C 94% 1013.6 hPa - - - -
1787984242 13.89° C 94% 1013.6 hPa - - - -
1787983638 13.33° C 95% 1013.7 hPa - - - -
1787983034 13.33° C 96% 1013.8 hPa - - - -
1787982430 13.33° C 96% 1013.6 hPa - - - -
1787981826 12.78° C 95% 1013.6 hPa - - - -
1787981222 12.78° C 94% 1013.4 hPa - - - -
1787980618 12.78° C 95% 1013.7 hPa - - - -
1787980015 12.78° C 94% 1013.5 hPa - - - -
1787979410 12.78° C 94% 1013.4 hPa - - - -

* Rain since midnight (hover to see other rain measurements)
** Current wind speed in m/s (hover to see current wind gust speed)